Cortez, CO

11:41 AM MDT on May 23, 2018 (GMT -0600)
Cortez Municipal

Weather History for KCEZ - May, 2014

Change the Weather History Date:

Sunday, May 4, 2014

  Actual Average Record
Temperature  
Mean Temperature 59 °F 52 °F  
Max Temperature 79 °F 71 °F 84 °F (2000)
Min Temperature 38 °F 34 °F 25 °F (2013)
Degree Days  
Heating Degree Days 6 13  
Month to date heating degree days 51 53  
Since 1 July heating degree days 5938 6123  
Cooling Degree Days 0 0  
Month to date cooling degree days 0 0  
Year to date cooling degree days 0 0  
Growing Degree Days 6 (Base 50)    
Moisture  
Dew Point 20 °F    
Average Humidity 34    
Maximum Humidity 59    
Minimum Humidity 9    
Precipitation  
Precipitation 0.00 in 0.04 in 0.05 in (1999)
Month to date precipitation 0.00 0.16  
Year to date precipitation 1.87 4.38  
Sea Level Pressure  
Sea Level Pressure 29.93 in    
Wind  
Wind Speed 8 mph (South)    
Max Wind Speed 26 mph    
Max Gust Speed 36 mph    
Visibility 10 miles    
Events      
T = Trace of Precipitation, MM = Missing Value Source: NWS Daily Summary

Daily Weather History Graph

Daily Weather History Graph

Search for Another Location

Airport or City:

Astronomy

May. 04, 2014 Rise Set
Actual Time 6:16 AM MDT 8:06 PM MDT
Civil Twilight 5:48 AM MDT 8:35 PM MDT
Nautical Twilight 5:13 AM MDT 9:09 PM MDT
Astronomical Twilight 4:37 AM MDT 9:46 PM MDT
Moon 10:43 AM MDT (5/4) 12:13 AM MDT (5/4)
Length of Visible Light 14h 47m
Length of Day
13h 50m
Waxing Crescent, 28% of the Moon is Illuminated
May 4
Waxing Crescent
May 6
First Quarter
May 14
Full
May 21
Last Quarter
May 28
New

Hourly Weather History & Observations

Time (MDT) Temp. Windchill Dew Point Humidity Pressure Visibility Wind Dir Wind Speed Gust Speed Precip Events Conditions
12:53 AM 42.1 °F - 24.1 °F 49% 29.91 in 10.0 mi Calm Calm - N/A   Clear
1:53 AM 37.9 °F 32.7 °F 24.1 °F 57% 29.91 in 10.0 mi SE 6.9 mph - N/A   Clear
2:53 AM 41.0 °F 37.1 °F 23.0 °F 49% 29.91 in 10.0 mi Variable 5.8 mph - N/A   Clear
3:53 AM 45.0 °F 42.6 °F 24.1 °F 44% 29.92 in 10.0 mi Variable 4.6 mph - N/A   Clear
4:53 AM 39.9 °F 32.9 °F 24.1 °F 53% 29.94 in 10.0 mi ENE 11.5 mph - N/A   Clear
5:53 AM 43.0 °F 39.5 °F 24.1 °F 47% 29.94 in 10.0 mi Variable 5.8 mph - N/A   Clear
6:53 AM 42.1 °F 40.2 °F 26.1 °F 53% 29.96 in 10.0 mi ENE 3.5 mph - N/A   Clear
7:53 AM 46.9 °F - 28.0 °F 48% 29.98 in 10.0 mi Calm Calm - N/A   Clear
8:53 AM 57.0 °F - 28.9 °F 34% 30.00 in 10.0 mi Calm Calm - N/A   Clear
9:53 AM 64.9 °F - 21.0 °F 19% 29.99 in 10.0 mi Calm Calm - N/A   Clear
10:53 AM 70.0 °F - 19.0 °F 14% 29.98 in 10.0 mi SSW 16.1 mph - N/A   Clear
11:53 AM 71.1 °F - 17.1 °F 13% 29.99 in 10.0 mi SW 15.0 mph - N/A   Clear
12:53 PM 73.0 °F - 15.1 °F 11% 29.96 in 10.0 mi SW 15.0 mph 25.3 mph N/A   Clear
1:53 PM 73.0 °F - 12.0 °F 10% 29.96 in 10.0 mi SW 18.4 mph 25.3 mph N/A   Clear
2:53 PM 73.9 °F - 14.0 °F 10% 29.92 in 10.0 mi SW 10.4 mph - N/A   Clear
3:53 PM 75.0 °F - 14.0 °F 10% 29.89 in 10.0 mi WSW 12.7 mph 28.8 mph N/A   Clear
4:53 PM 73.9 °F - 10.9 °F 9% 29.89 in 10.0 mi WSW 16.1 mph 20.7 mph N/A   Clear
5:53 PM 75.0 °F - 12.0 °F 9% 29.86 in 10.0 mi SW 11.5 mph - N/A   Clear
6:53 PM 72.0 °F - 14.0 °F 11% 29.86 in 10.0 mi WSW 10.4 mph - N/A   Clear
7:53 PM 62.1 °F - 19.9 °F 20% 29.88 in 10.0 mi SSW 6.9 mph - N/A   Clear
8:53 PM 55.0 °F - 23.0 °F 29% 29.88 in 10.0 mi East 5.8 mph - N/A   Clear
9:53 PM 52.0 °F - 21.0 °F 30% 29.88 in 10.0 mi ENE 8.1 mph - N/A   Clear
10:53 PM 48.0 °F - 24.1 °F 39% 29.89 in 10.0 mi ENE 4.6 mph - N/A   Clear
11:53 PM 45.0 °F 40.6 °F 21.9 °F 40% 29.90 in 10.0 mi East 8.1 mph - N/A   Clear